DW0542 Weather Reports


Display with metric or nautical units.
time (UTC)temp
F
wind
direction
speed
MPH
gust
MPH
rain 1hr
in
rain 24hr
in
rain mn
in
humidity
%
barometer
mb
20260509081515 39 230 0.0 0.0 0.00 0.00 0.00 87 1014.2
20260509080014 38 230 0.0 0.0 0.00 0.00 0.00 88 1014.2
20260509074514 37 230 0.0 0.0 0.00 0.00 0.00 88 1014.6
20260509073013 37 230 0.0 0.0 0.00 0.00 0.00 88 1014.4
20260509071512 37 230 0.0 0.0 0.00 0.00 0.00 87 1014.4
20260509070009 37 230 0.0 0.0 0.00 0.00 0.00 87 1014.6
20260509064509 37 230 0.0 0.0 0.00 0.00 0.00 87 1014.6
20260509063007 37 230 0.0 0.0 0.00 0.00 0.00 86 1014.7
20260509061513 38 230 0.0 0.0 0.00 0.00 0.00 86 1014.8
20260509060003 38 230 0.0 0.0 0.00 0.00 0.00 86 1014.6
20260509054502 38 230 0.0 0.0 0.00 0.00 0.00 86 1014.7
20260509053002 38 230 0.0 0.0 0.00 0.00 0.00 85 1014.7
20260509051608 38 230 0.0 0.0 0.00 0.00 0.00 85 1014.5
20260509050029 38 230 0.0 0.0 0.00 0.00 0.00 84 1014.4
20260509044526 39 230 0.0 0.0 0.00 0.00 0.00 84 1014.3
20260509043055 39 230 0.0 0.0 0.00 0.00 0.00 83 1014.4
20260509041553 39 230 0.0 0.0 0.00 0.00 0.00 83 1014.4
20260509040049 39 230 0.0 0.0 0.00 0.00 0.00 83 1014.3
20260509034547 40 230 0.0 0.0 0.00 0.00 0.00 82 1014.1
20260509033045 40 230 0.0 0.0 0.00 0.00 0.00 81 1014.0
20260509031553 41 230 0.0 0.0 0.00 0.00 0.00 80 1014.0
20260509030013 41 230 0.0 0.0 0.00 0.00 0.00 79 1013.9
20260509024510 42 230 0.0 0.0 0.00 0.00 0.00 77 1013.7
20260509023003 42 230 0.0 0.0 0.00 0.00 0.00 76 1013.8
20260509021600 43 230 0.0 0.0 0.00 0.00 0.00 74 1013.6
20260509020058 43 230 0.0 0.0 0.00 0.00 0.00 72 1013.6
20260509014553 44 230 0.0 0.0 0.00 0.00 0.00 70 1013.5
20260509013048 45 230 0.0 0.0 0.00 0.00 0.00 68 1013.1
20260509011543 47 230 0.0 0.0 0.00 0.00 0.00 66 1012.8
20260509010044 50 230 0.0 0.0 0.00 0.00 0.00 60 1012.6
20260509004535 51 230 0.0 0.0 0.00 0.00 0.00 58 1012.2
20260509003028 51 230 0.0 0.0 0.00 0.00 0.00 57 1012.0
20260509001530 52 230 0.0 0.0 0.00 0.00 0.00 56 1011.9
20260509000021 53 230 0.0 0.0 0.00 0.00 0.00 57 1011.8
20260508234518 53 255 0.0 0.0 0.00 0.00 0.00 54 1011.4
20260508233013 53 253 0.0 3.0 0.00 0.00 0.00 56 1011.1
20260508231510 54 261 0.0 6.0 0.00 0.00 0.00 54 1010.9
20260508230008 54 257 6.0 11.0 0.00 0.00 0.00 52 1010.9
20260508224508 54 251 5.0 13.0 0.00 0.00 0.00 53 1010.8
20260508223006 54 254 5.0 17.0 0.00 0.00 0.00 53 1010.7
20260508221600 54 274 9.0 18.0 0.00 0.00 0.00 53 1010.6
20260508220120 54 271 12.0 19.0 0.00 0.00 0.00 53 1010.7
20260508214557 54 262 8.0 20.0 0.00 0.00 0.00 53 1010.6
20260508213052 54 293 12.0 20.0 0.00 0.00 0.00 56 1010.5
20260508211549 54 290 15.0 22.0 0.00 0.00 0.00 56 1010.4
20260508210048 54 284 11.0 18.0 0.00 0.00 0.00 57 1010.3
20260508204546 53 238 6.0 15.0 0.00 0.00 0.00 57 1010.4
20260508203047 52 276 5.0 15.0 0.00 0.00 0.00 61 1010.5
20260508201513 51 257 11.0 17.0 0.00 0.00 0.00 64 1010.7
20260508200012 51 247 12.0 20.0 0.00 0.00 0.00 65 1010.7
20260508194510 52 259 9.0 14.0 0.00 0.00 0.00 62 1010.7
20260508193008 51 270 11.0 21.0 0.00 0.00 0.00 62 1010.6
20260508191605 52 322 14.0 22.0 0.00 0.00 0.00 61 1010.5
20260508190010 52 295 12.0 19.0 0.00 0.00 0.00 60 1010.5
20260508184544 53 273 10.0 21.0 0.00 0.00 0.00 57 1010.4
20260508183035 55 301 12.0 20.0 0.00 0.00 0.00 55 1010.0
20260508181503 55 266 9.0 15.0 0.00 0.00 0.00 51 1009.9
20260508180002 56 243 4.0 14.0 0.00 0.00 0.00 52 1009.7
20260508174620 56 239 3.0 11.0 0.00 0.00 0.00 45 1009.5
20260508173101 56 292 2.0 16.0 0.00 0.00 0.00 48 1009.6
20260508171559 56 220 4.0 12.0 0.00 0.00 0.00 44 1009.7
20260508170100 55 226 1.0 11.0 0.00 0.00 0.00 46 1009.7
20260508164529 55 251 8.0 15.0 0.00 0.00 0.00 48 1010.0
20260508163036 54 286 1.0 14.0 0.00 0.00 0.00 47 1010.1
20260508161531 54 295 5.0 13.0 0.00 0.00 0.00 50 1010.2
20260508160023 54 206 6.0 16.0 0.00 0.00 0.00 50 1010.3
20260508154523 53 299 6.0 14.0 0.00 0.00 0.00 52 1010.3
20260508153023 53 310 8.0 15.0 0.00 0.00 0.00 55 1010.4
20260508151552 53 271 6.0 13.0 0.00 0.00 0.00 52 1010.5
20260508150054 53 247 2.0 12.0 0.00 0.00 0.00 51 1010.6
20260508144554 52 280 7.0 15.0 0.00 0.00 0.00 55 1010.6
20260508143053 52 265 4.0 12.0 0.00 0.00 0.00 52 1010.7
20260508141555 51 293 7.0 16.0 0.00 0.00 0.00 59 1010.8
20260508140045 51 290 6.0 14.0 0.00 0.00 0.00 53 1010.9
20260508134555 50 308 6.0 12.0 0.00 0.00 0.00 56 1010.9
20260508133042 50 259 8.0 17.0 0.00 0.00 0.00 54 1011.2
20260508131541 50 280 10.0 14.0 0.00 0.00 0.00 54 1011.2
20260508124511 49 272 8.0 14.0 0.00 0.00 0.00 53 1011.2
20260508123008 49 265 2.0 10.0 0.00 0.00 0.00 55 1011.1
20260508121506 48 295 5.0 12.0 0.00 0.00 0.00 56 1011.1
20260508120105 47 287 2.0 9.0 0.00 0.00 0.00 58 1011.1
20260508114504 46 297 1.0 8.0 0.00 0.00 0.00 63 1011.1
20260508113006 45 286 0.0 4.0 0.00 0.00 0.00 64 1011.1
20260508111534 42 288 0.0 4.0 0.00 0.00 0.00 76 1011.0
20260508110030 40 295 0.0 0.0 0.00 0.00 0.00 84 1010.9
20260508104526 39 295 0.0 0.0 0.00 0.00 0.00 85 1010.6
20260508103033 38 295 0.0 0.0 0.00 0.01 0.00 85 1010.5
20260508101522 38 295 0.0 0.0 0.00 0.01 0.00 84 1010.4
20260508100025 39 295 0.0 0.0 0.00 0.01 0.00 85 1010.2
20260508094517 39 295 0.0 0.0 0.00 0.01 0.00 84 1010.1
20260508093016 39 295 0.0 0.0 0.00 0.07 0.00 83 1010.0
20260508091515 39 295 0.0 0.0 0.00 0.07 0.00 82 1009.9
20260508090020 38 295 0.0 0.0 0.00 0.07 0.00 83 1009.9
20260508084508 38 295 0.0 0.0 0.00 0.07 0.00 83 1009.9
20260508083009 38 295 0.0 0.0 0.00 0.19 0.00 84 1009.6